EW5742 Weather Reports


Display with metric or nautical units.
time (UTC)temp
F
wind
direction
speed
MPH
gust
MPH
rain 1hr
in
rain 24hr
in
rain mn
in
humidity
%
barometer
mb
20260510191535 79 143 5.0 9.0 0.00 0.01 0.01 67 1014.3
20260510190028 78 107 4.0 11.0 0.00 0.01 0.01 67 1014.2
20260510184555 80 276 2.0 8.0 0.00 0.01 0.01 67 1014.3
20260510183052 79 146 3.0 9.0 0.00 0.01 0.01 67 1014.5
20260510181542 78 168 6.0 12.0 0.00 0.01 0.01 69 1014.5
20260510180046 78 23 3.0 14.0 0.00 0.01 0.01 70 1014.6
20260510174539 79 113 3.0 11.0 0.00 0.01 0.01 68 1014.7
20260510173020 78 184 3.0 13.0 0.00 0.01 0.01 71 1014.7
20260510171634 78 107 4.0 12.0 0.00 0.01 0.01 70 1014.7
20260510170021 79 154 4.0 12.0 0.00 0.01 0.01 70 1014.9
20260510164503 78 124 3.0 10.0 0.00 0.01 0.01 71 1014.9
20260510163003 79 164 5.0 13.0 0.00 0.01 0.01 69 1014.8
20260510161505 79 208 2.0 5.0 0.00 0.01 0.01 70 1014.9
20260510160009 79 271 3.0 8.0 0.00 0.01 0.01 70 1015.0
20260510154557 79 127 1.0 8.0 0.00 0.01 0.01 71 1015.0
20260510153037 80 211 0.0 2.0 0.00 0.01 0.01 67 1015.0
20260510151532 79 320 0.0 2.0 0.00 0.01 0.01 70 1015.0
20260510144555 77 8 0.0 4.0 0.00 0.01 0.01 72 1014.8
20260510143057 77 304 0.0 3.0 0.00 0.01 0.01 72 1014.6
20260510141552 76 105 0.0 4.0 0.00 0.01 0.01 77 1014.6
20260510140017 73 203 0.0 4.0 0.00 0.01 0.01 80 1014.7
20260510134510 71 1 0.0 2.0 0.00 0.01 0.01 83 1014.7
20260510133054 70 313 0.0 3.0 0.00 0.01 0.01 85 1014.7
20260510131550 68 140 0.0 4.0 0.00 0.01 0.01 91 1014.6
20260510130035 67 328 0.0 1.0 0.00 0.01 0.01 94 1014.7
20260510124519 67 346 0.0 1.0 0.00 0.01 0.01 94 1014.5
20260510123052 66 26 0.0 0.0 0.00 0.01 0.01 95 1014.4
20260510121552 65 26 0.0 0.0 0.00 0.01 0.01 95 1014.4
20260510114538 62 26 0.0 0.0 0.00 0.01 0.01 95 1014.1
20260510113139 62 25 0.0 0.0 0.01 0.01 0.01 95 1014.1
20260510111534 61 25 0.0 0.0 0.01 0.01 0.01 95 1013.9
20260510110039 61 25 0.0 0.0 0.01 0.01 0.01 94 1013.7
20260510104514 61 26 0.0 0.0 0.01 0.01 0.01 95 1013.3
20260510103014 61 26 0.0 0.0 0.00 0.00 0.00 95 1013.3
20260510101514 61 26 0.0 0.0 0.00 0.00 0.00 94 1013.1
20260510100007 61 26 0.0 0.0 0.00 0.00 0.00 95 1012.8
20260510094548 61 26 0.0 0.0 0.00 0.00 0.00 94 1012.7
20260510091543 61 26 0.0 0.0 0.00 0.00 0.00 94 1012.5
20260510090046 62 26 0.0 0.0 0.00 0.00 0.00 95 1012.5
20260510084508 61 26 0.0 0.0 0.00 0.00 0.00 95 1012.2
20260510083011 61 25 0.0 0.0 0.00 0.00 0.00 95 1012.3
20260510081513 61 26 0.0 0.0 0.00 0.00 0.00 94 1012.2
20260510080012 61 26 0.0 0.0 0.00 0.00 0.00 94 1011.9
20260510074511 61 26 0.0 0.0 0.00 0.00 0.00 94 1011.8
20260510073011 61 25 0.0 0.0 0.00 0.00 0.00 94 1011.8
20260510071555 61 26 0.0 0.0 0.00 0.00 0.00 94 1011.8
20260510070048 61 25 0.0 0.0 0.00 0.00 0.00 94 1011.8
20260510064530 61 26 0.0 0.0 0.00 0.00 0.00 94 1011.6
20260510063017 62 26 0.0 0.0 0.00 0.00 0.00 94 1011.7
20260510061558 62 26 0.0 0.0 0.00 0.00 0.00 94 1011.7
20260510060058 62 25 0.0 0.0 0.00 0.00 0.00 93 1011.7
20260510054514 63 25 0.0 0.0 0.00 0.00 0.00 94 1011.7
20260510053028 63 25 0.0 0.0 0.00 0.00 0.00 94 1011.8
20260510050055 64 26 0.0 0.0 0.00 0.00 0.00 93 1011.9
20260510044550 64 25 0.0 0.0 0.00 0.00 0.00 93 1012.1
20260510043050 64 25 0.0 0.0 0.00 0.00 0.00 93 1012.1
20260510041547 64 26 0.0 0.0 0.00 0.00 0.00 93 1012.0
20260510040027 64 26 0.0 0.0 0.00 0.00 0.00 93 1012.0
20260510034527 65 26 0.0 0.0 0.00 0.00 0.00 93 1012.0
20260510033137 65 25 0.0 0.0 0.00 0.00 0.00 93 1012.0
20260510031602 65 26 0.0 0.0 0.00 0.00 0.00 93 1012.0
20260510030028 65 26 0.0 0.0 0.00 0.00 0.00 92 1011.9
20260510024528 66 26 0.0 0.0 0.00 0.00 0.00 92 1011.9
20260510023045 66 26 0.0 0.0 0.00 0.00 0.00 92 1011.9
20260510021547 66 26 0.0 0.0 0.00 0.00 0.00 92 1011.8
20260510020044 66 25 0.0 0.0 0.00 0.00 0.00 91 1011.6
20260510014545 67 26 0.0 0.0 0.00 0.00 0.00 91 1011.5
20260510013018 67 26 0.0 0.0 0.00 0.00 0.00 91 1011.4
20260510011513 68 26 0.0 0.0 0.00 0.00 0.00 90 1011.2
20260510010058 68 26 0.0 2.0 0.00 0.00 0.00 90 1011.2
20260510004559 68 276 0.0 1.0 0.00 0.00 0.00 90 1011.2
20260510003100 69 105 0.0 2.0 0.00 0.00 0.00 90 1010.9
20260510001548 69 314 0.0 1.0 0.00 0.00 0.00 89 1010.8
20260510000050 69 169 0.0 2.0 0.00 0.00 0.00 89 1010.7
20260509234548 69 147 0.0 2.0 0.00 0.00 0.00 89 1010.5
20260509233036 69 184 0.0 2.0 0.00 0.00 0.00 88 1010.5
20260509231648 69 195 0.0 2.0 0.00 0.00 0.00 88 1010.4
20260509230013 69 155 2.0 5.0 0.00 0.00 0.00 87 1010.5
20260509224527 69 169 0.0 4.0 0.00 0.00 0.00 87 1010.5
20260509223136 70 169 0.0 4.0 0.00 0.00 0.00 87 1010.5
20260509221538 70 131 2.0 5.0 0.00 0.00 0.00 86 1010.6
20260509220051 69 139 1.0 5.0 0.00 0.00 0.00 86 1010.6
20260509214524 69 259 0.0 5.0 0.00 0.00 0.00 86 1010.6
20260509213027 69 129 1.0 5.0 0.00 0.00 0.00 86 1010.5
20260509211546 69 132 2.0 6.0 0.00 0.00 0.00 85 1010.3
20260509210051 70 158 3.0 7.0 0.00 0.00 0.00 84 1010.4
20260509204521 70 173 2.0 6.0 0.00 0.00 0.00 83 1010.5
20260509203135 71 132 0.0 5.0 0.00 0.00 0.00 83 1010.6
20260509201521 70 199 1.0 4.0 0.00 0.00 0.00 82 1010.6
20260509200018 70 135 1.0 3.0 0.00 0.00 0.00 83 1010.6
20260509194506 71 152 0.0 4.0 0.00 0.00 0.00 82 1010.7
20260509193008 71 196 2.0 6.0 0.00 0.00 0.00 79 1010.8